Weather History for KCKC - October, 2011

Change the Weather History Date:

Monday, October 31, 2011

  Actual Average Record
Temperature  
Mean Temperature 39 °F -  
Max Temperature 41 °F 38 °F 60 °F (1999)
Min Temperature 37 °F 27 °F 6 °F (1996)
Degree Days  
Heating Degree Days 26    
Moisture  
Dew Point 34 °F    
Average Humidity 84    
Maximum Humidity 87    
Minimum Humidity 76    
Precipitation  
Precipitation 0.00 in - - ()
Sea Level Pressure  
Sea Level Pressure 29.92 in    
Wind  
Wind Speed 4 mph (ESE)    
Max Wind Speed 8 mph    
Max Gust Speed -    
Visibility 10 miles    
Events      
Averages and records for this station are not official NWS values.
T = Trace of Precipitation, MM = Missing Value Source: NWS Daily Summary

Daily Weather History Graph

Daily Weather History Graph

Search for Another Location

Airport or City:

Trip Planner

Search our weather history database for the weather conditions in past years. The results will help you decide how hot, cold, wet, or windy it might be!

Date:

Astronomy

Oct. 31, 2011 Rise Set
Actual Time 7:44 AM CDT 5:45 PM CDT
Civil Twilight 7:11 AM CDT 6:17 PM CDT
Nautical Twilight 6:35 AM CDT 6:54 PM CDT
Astronomical Twilight 5:59 AM CDT 7:29 PM CDT
Moon 1:01 PM CDT (10/31) 10:12 PM CDT (10/31)
Length of Visible Light 11h 05m
Length of Day
10h 01m
Waxing Crescent, 30% of the Moon is Illuminated
Oct 31
Waxing Crescent
Nov 2
First Quarter
Nov 10
Full
Nov 18
Last Quarter
Nov 25
New

Hourly Weather History & Observations

Time (CDT) Temp. Windchill Dew Point Humidity Pressure Visibility Wind Dir Wind Speed Gust Speed Precip Events Conditions
12:01 AM 37.4 °F 32.8 °F 33.8 °F 87% 29.92 in 10.0 mi ENE 5.8 mph - N/A   Overcast
12:21 AM 37.4 °F 32.8 °F 33.8 °F 87% 29.92 in 10.0 mi ENE 5.8 mph - N/A   Overcast
12:41 AM 37.4 °F - 33.8 °F 87% 29.93 in 10.0 mi NE 2.3 mph - N/A   Overcast
1:01 AM 37.4 °F - 33.8 °F 87% 29.93 in 10.0 mi ENE 2.3 mph - N/A   Overcast
1:21 AM 37.4 °F - 33.8 °F 87% 29.93 in 10.0 mi ENE 2.3 mph - N/A   Overcast
1:41 AM 37.4 °F - 33.8 °F 87% 29.93 in 10.0 mi NNE 2.3 mph - N/A   Overcast
2:01 AM 37.4 °F - 33.8 °F 87% 29.94 in 10.0 mi NE 2.3 mph - N/A   Overcast
2:21 AM 37.4 °F - 33.8 °F 87% 29.93 in 10.0 mi NE 2.3 mph - N/A   Overcast
2:41 AM 37.4 °F - 33.8 °F 87% 29.94 in 10.0 mi NNE 2.3 mph - N/A   Overcast
3:01 AM 37.4 °F - 33.8 °F 87% 29.93 in 7.0 mi NE 2.3 mph - N/A   Overcast
3:21 AM 37.4 °F 34.9 °F 33.8 °F 87% 29.94 in 10.0 mi NNE 3.5 mph - N/A   Overcast
3:41 AM 37.4 °F - 33.8 °F 87% 29.93 in 10.0 mi NNE 2.3 mph - N/A   Overcast
4:01 AM 37.4 °F 34.9 °F 33.8 °F 87% 29.94 in 10.0 mi North 3.5 mph - N/A   Overcast
4:21 AM 37.4 °F 34.9 °F 33.8 °F 87% 29.94 in 7.0 mi North 3.5 mph - N/A   Overcast
4:41 AM 37.4 °F 33.8 °F 33.8 °F 87% 29.93 in 10.0 mi NNE 4.6 mph - N/A   Overcast
5:01 AM 37.4 °F - 33.8 °F 87% 29.93 in 10.0 mi North 2.3 mph - N/A   Overcast
5:21 AM 37.4 °F 34.9 °F 33.8 °F 87% 29.93 in 10.0 mi NE 3.5 mph - N/A   Overcast
5:41 AM 37.4 °F 34.9 °F 33.8 °F 87% 29.93 in 10.0 mi NNE 3.5 mph - N/A   Overcast
6:01 AM 37.4 °F 34.9 °F 33.8 °F 87% 29.93 in 10.0 mi NNE 3.5 mph - N/A   Overcast
6:41 AM 37.4 °F 33.8 °F 33.8 °F 87% 29.93 in 10.0 mi ENE 4.6 mph - N/A   Overcast
7:01 AM 37.4 °F 34.9 °F 33.8 °F 87% 29.93 in 10.0 mi NE 3.5 mph - N/A   Overcast
7:21 AM 37.4 °F - 33.8 °F 87% 29.93 in 10.0 mi NNE 2.3 mph - N/A   Overcast
7:41 AM 37.4 °F 33.8 °F 33.8 °F 87% 29.93 in 10.0 mi NNE 4.6 mph - N/A   Overcast
8:01 AM 37.4 °F 34.9 °F 33.8 °F 87% 29.94 in 7.0 mi NNE 3.5 mph - N/A   Overcast
8:21 AM 37.4 °F 32.8 °F 33.8 °F 87% 29.94 in 10.0 mi NE 5.8 mph - N/A   Overcast
8:41 AM 37.4 °F 32.8 °F 33.8 °F 87% 29.94 in 10.0 mi ENE 5.8 mph - N/A   Overcast
9:01 AM 37.4 °F 33.8 °F 33.8 °F 87% 29.94 in 10.0 mi NE 4.6 mph - N/A   Overcast
9:21 AM 37.4 °F 33.8 °F 33.8 °F 87% 29.94 in 10.0 mi ENE 4.6 mph - N/A   Overcast
9:41 AM 37.4 °F 33.8 °F 33.8 °F 87% 29.93 in 10.0 mi ENE 4.6 mph - N/A   Overcast
10:21 AM 39.2 °F 37.0 °F 35.6 °F 87% 29.93 in 10.0 mi ENE 3.5 mph - N/A   Overcast
10:41 AM 39.2 °F 37.0 °F 33.8 °F 81% 29.93 in 10.0 mi East 3.5 mph - N/A   Overcast
11:01 AM 39.2 °F 37.0 °F 33.8 °F 81% 29.93 in 10.0 mi ENE 3.5 mph - N/A   Overcast
11:21 AM 39.2 °F - 33.8 °F 81% 29.93 in 10.0 mi SSE 1.2 mph - N/A   Overcast
11:41 AM 39.2 °F - 35.6 °F 87% 29.93 in 10.0 mi SE 1.2 mph - N/A   Overcast
12:01 PM 39.2 °F - 35.6 °F 87% 29.93 in 10.0 mi SSE 1.2 mph - N/A   Overcast
12:21 PM 39.2 °F - 35.6 °F 87% 29.92 in 7.0 mi ESE 2.3 mph - N/A   Overcast
12:41 PM 39.2 °F - 35.6 °F 87% 29.92 in 10.0 mi Calm Calm - N/A   Overcast
1:01 PM 39.2 °F 35.9 °F 35.6 °F 87% 29.92 in 10.0 mi South 4.6 mph - N/A   Overcast
1:21 PM 39.2 °F 37.0 °F 35.6 °F 87% 29.92 in 10.0 mi South 3.5 mph - N/A   Overcast
1:44 PM 41.0 °F 38.0 °F 35.6 °F 81% 29.91 in 10.0 mi SSW 4.6 mph - N/A   Overcast
2:01 PM 41.0 °F 36.4 °F 33.8 °F 76% 29.91 in 10.0 mi South 6.9 mph - N/A   Overcast
2:21 PM 41.0 °F 36.4 °F 33.8 °F 76% 29.91 in 10.0 mi South 6.9 mph - N/A   Overcast
2:41 PM 41.0 °F 37.1 °F 33.8 °F 76% 29.91 in 10.0 mi SSE 5.8 mph - N/A   Overcast
3:01 PM 41.0 °F 37.1 °F 33.8 °F 76% 29.91 in 10.0 mi South 5.8 mph - N/A   Overcast
3:41 PM 41.0 °F 36.4 °F 33.8 °F 76% 29.90 in 10.0 mi South 6.9 mph - N/A   Overcast
4:01 PM 39.2 °F 35.0 °F 33.8 °F 81% 29.91 in 10.0 mi South 5.8 mph - N/A   Overcast
4:21 PM 39.2 °F 34.2 °F 33.8 °F 81% 29.91 in 10.0 mi South 6.9 mph - N/A   Overcast
4:41 PM 39.2 °F 35.9 °F 33.8 °F 81% 29.91 in 10.0 mi South 4.6 mph - N/A   Overcast
5:01 PM 39.2 °F 35.9 °F 33.8 °F 81% 29.91 in 10.0 mi South 4.6 mph - N/A   Overcast
5:21 PM 39.2 °F 37.0 °F 33.8 °F 81% 29.91 in 10.0 mi South 3.5 mph - N/A   Overcast
5:41 PM 39.2 °F 35.9 °F 33.8 °F 81% 29.91 in 10.0 mi South 4.6 mph - N/A   Overcast
6:01 PM 39.2 °F 34.2 °F 33.8 °F 81% 29.91 in 10.0 mi South 6.9 mph - N/A   Overcast
6:21 PM 39.2 °F 35.0 °F 33.8 °F 81% 29.91 in 10.0 mi South 5.8 mph - N/A   Overcast
6:41 PM 39.2 °F 35.0 °F 33.8 °F 81% 29.91 in 10.0 mi South 5.8 mph - N/A   Overcast
7:01 PM 39.2 °F 34.2 °F 33.8 °F 81% 29.91 in 10.0 mi South 6.9 mph - N/A   Overcast
7:21 PM 39.2 °F 34.2 °F 33.8 °F 81% 29.91 in 10.0 mi South 6.9 mph - N/A   Overcast
7:41 PM 39.2 °F 35.9 °F 33.8 °F 81% 29.91 in 10.0 mi South 4.6 mph - N/A   Overcast
8:01 PM 39.2 °F 33.6 °F 33.8 °F 81% 29.91 in 10.0 mi South 8.1 mph - N/A   Overcast
8:21 PM 39.2 °F 33.6 °F 33.8 °F 81% 29.91 in 10.0 mi South 8.1 mph - N/A   Overcast
8:41 PM 39.2 °F 35.0 °F 33.8 °F 81% 29.91 in 10.0 mi South 5.8 mph - N/A   Overcast
9:01 PM 39.2 °F 35.9 °F 33.8 °F 81% 29.91 in 10.0 mi South 4.6 mph - N/A   Overcast
9:41 PM 39.2 °F 33.6 °F 35.6 °F 87% 29.91 in 10.0 mi South 8.1 mph - N/A   Overcast
10:01 PM 39.2 °F 33.0 °F 33.8 °F 81% 29.91 in 10.0 mi South 9.2 mph - N/A   Overcast
10:21 PM 39.2 °F 33.0 °F 33.8 °F 81% 29.91 in 10.0 mi South 9.2 mph - N/A   Overcast
10:41 PM 39.2 °F 32.0 °F 33.8 °F 81% 29.90 in 10.0 mi South 11.5 mph 17.3 mph N/A   Mostly Cloudy
11:01 PM 37.4 °F 29.3 °F 33.8 °F 87% 29.90 in 10.0 mi South 12.7 mph 17.3 mph N/A   Scattered Clouds
11:21 PM 39.2 °F 32.0 °F 33.8 °F 81% 29.90 in 10.0 mi South 11.5 mph 17.3 mph N/A   Mostly Cloudy
11:41 PM 39.2 °F 33.0 °F 33.8 °F 81% 29.90 in 10.0 mi South 9.2 mph 17.3 mph N/A   Overcast